Hourly Weather Roundup
Issued by NWS Central Illinois

Home | Current Version | Previous Version | Graphics & Text | Print | Product List | Glossary On
Versions: 1 2 3 4 5 6 7 8 9 10 11 12 13 14 15 16 17 18 19 20 21 22 23 24 25 26 27 28 29 30 31 32 33 34 35 36 37 38 39 40 41 42 43 44 45 46 47 48 49 50
000
NZUS43 KILX 051010
HWRILX

AREA WEATHER ROUNDUP
NATIONAL WEATHER SERVICE, LINCOLN IL
400 AM CST MON DEC 05 2016


CITY           SKY/WX    TMP DP  RH WIND       PRES   REMARKS
BLOOMINGTON    CLOUDY    31  30  96 SW7       30.02F WCI  24
CHAMPAIGN      CLOUDY    33  30  88 W7        30.05R WCI  27
DANVILLE       CLOUDY    32  31  97 W8        30.02S WCI  25
DECATUR        CLOUDY    33  31  92 SW5       30.04S WCI  29
EFFINGHAM      CLOUDY    35  34  96 CALM      30.08S
FLORA          CLOUDY    37  33  84 CALM      30.09R
GALESBURG      CLOUDY    32  32 100 SW6       30.00S FOG     WCI  26
JACKSONVILLE   FOG       33  33  99 S6        30.04R VSB 1/2 WCI  28
LACON          CLOUDY    32  31  98 CALM      30.02S
LAWRENCEVILLE  CLOUDY    37  32  82 CALM      30.09S
LITCHFIELD     CLOUDY    35  34  96 S7        30.04F WCI  29
$$


CITY           SKY/WX    TMP DP  RH WIND       PRES   REMARKS
LINCOLN        CLOUDY    35  34  96 CALM      30.03F
MACOMB         CLOUDY    32  32 100 W3        30.03F FOG
MATTOON        CLOUDY    34  31  88 W3        30.05S
MT CARMEL AP   CLOUDY    36  31  83 CALM      30.09S
OLNEY-NOBLE AP CLOUDY    34  34 100 CALM      30.09S
PARIS          CLOUDY    34  32  94 W5        30.06F WCI  30
PEORIA         CLOUDY    32  32 100 W5        30.03S WCI  27
PONTIAC        CLOUDY    33  33 100 W7        30.02F WCI  27
RANTOUL        CLOUDY    34  32  94 W6        30.03F WCI  29
SPRINGFIELD    CLOUDY    35  33  92 S5        30.05R FOG     WCI  31
TAYLORVILLE    CLOUDY    34  33  97 S3        30.05S FOG
$$

...REGIONAL REPORTS...


CITY           SKY/WX    TMP DP  RH WIND       PRES   REMARKS
CHICAGO O`HARE CLOUDY    33  30  88 W9        29.98S WCI  25
KANKAKEE       CLOUDY    32  32  99 CALM      30.04S
MOLINE         CLOUDY    34  31  88 S6        29.99S WCI  29
MOUNT STERLING FOG       32  32 100 CALM      30.01F VSB 1/4
MOUNT VERNON   NOT AVBL
PITTSFIELD     FOG       30  30 100 SE3       30.03S VSB 1/4
QUINCY         FOG       32  32 100 CALM      30.00F VSB<1/4
ROCKFORD       CLOUDY    32  30  92 W9        30.00R FOG     WCI  24
$$


CITY           SKY/WX    TMP DP  RH WIND       PRES   REMARKS
BURLINGTON     CLOUDY    33  33 100 SW8       29.99S FOG     WCI  26
CEDAR RAPIDS   FOG       32  32 100 S13       29.95R VSB 1/4 WCI  22
DES MOINES     CLOUDY    32  30  92 S8        29.89F FOG     WCI  25
KIRKSVILLE     FOG       28  27  96 S3        29.96F VSB 1/4
OTTUMWA        FOG       34  32  92 S12       29.95F VSB 1/2 WCI  25
ST LOUIS       CLOUDY    37  32  82 S5        30.05F WCI  33
$$


CITY           SKY/WX    TMP DP  RH WIND       PRES   REMARKS
TERRE HAUTE    CLOUDY    35  30  82 W6        30.08R WCI  30
EVANSVILLE     CLOUDY    38  33  82 NW5       30.10S WCI  34
INDIANAPOLIS   CLOUDY    34  30  85 W8        30.05S WCI  27
LAFAYETTE      CLOUDY    32  31  96 W9        30.05R WCI  24
MADISON        CLOUDY    33  31  92 VRB6      29.92S WCI  28
MILWAUKEE      DRIZZLE   35  30  82 W10       29.94R WCI  27
$$





USA.gov is the U.S. government's official web portal to all federal, state and local government web resources and services.